Change the Weather History Date:

Tuesday, September 17, 2013

  Actual Average Record
Temperature  
Mean Temperature 52 °F -  
Max Temperature 66 °F 53 °F 77 °F (2003)
Min Temperature 37 °F 35 °F 28 °F (2014)
Degree Days  
Heating Degree Days 14    
Growing Degree Days 2 (Base 50)    
Moisture  
Dew Point 41 °F    
Average Humidity 71    
Maximum Humidity 93    
Minimum Humidity 45    
Precipitation  
Precipitation 0.00 in 0.11 in - ()
Sea Level Pressure  
Sea Level Pressure 30.22 in    
Wind  
Wind Speed 9 mph ()    
Max Wind Speed 18 mph    
Max Gust Speed 26 mph    
Visibility 15.0 miles    
Events      
Averages and records for this station are not official NWS values.
T = Trace of Precipitation, MM = Missing Value Source: Averaged Metar Reports

Daily Weather History Graph

Daily Weather History Graph

Search for Another Location

Airport or City:

Trip Planner

Search our weather history database for the weather conditions in past years. The results will help you decide how hot, cold, wet, or windy it might be!

Date:

Astronomy

Sep. 17, 2013 Rise Set
Actual Time 7:09 AM EDT 7:38 PM EDT
Civil Twilight 6:37 AM EDT 8:10 PM EDT
Nautical Twilight 5:59 AM EDT 8:48 PM EDT
Astronomical Twilight 5:19 AM EDT 9:27 PM EDT
Moon 6:28 PM EDT (9/17) 4:54 AM EDT (9/17)
Length of Visible Light 13h 32m
Length of Day
12h 28m
Waxing Gibbous, 96% of the Moon is Illuminated
Sep 17
Waxing Gibbous
Sep 19
Full
Sep 26
Last Quarter
Oct 4
New
Oct 11
First Quarter

Hourly Weather History & Observations

Time (EDT) Temp. Windchill Dew Point Humidity Pressure Visibility Wind Dir Wind Speed Gust Speed Precip Events Conditions
12:00 AM 42.8 °F 38.0 °F 35.6 °F 76% 30.32 in 15.0 mi South 8.1 mph - N/A   Partly Cloudy
1:00 AM 41.0 °F 36.4 °F 35.6 °F 81% 30.32 in 15.0 mi SSW 6.9 mph - N/A   Clear
2:00 AM 41 °F - 36 °F 77% 30.33 in 15 mi SSW 6.9 mph - -   Scattered Clouds
2:00 AM 41.0 °F 36.4 °F 35.6 °F 81% 30.33 in 15.0 mi SSW 6.9 mph - N/A   Partly Cloudy
3:00 AM 39.2 °F 34.2 °F 37.4 °F 93% 30.32 in 15.0 mi SSW 6.9 mph - N/A   Partly Cloudy
4:00 AM 39.2 °F 35.9 °F 37.4 °F 93% 30.32 in 15.0 mi South 4.6 mph - N/A   Partly Cloudy
5:00 AM 37.4 °F 34.9 °F 35.6 °F 93% 30.31 in 15.0 mi South 3.5 mph - N/A   Clear
6:00 AM 37.4 °F 32.8 °F 35.6 °F 93% 30.30 in 15.0 mi South 5.8 mph - N/A   Clear
7:00 AM 37.4 °F 34.9 °F 35.6 °F 93% 30.30 in 15.0 mi South 3.5 mph - N/A   Partly Cloudy
8:00 AM 39 °F - 37 °F 92% 30.30 in 15 mi South 10.4 mph - -   Clear
8:00 AM 39.2 °F 32.5 °F 37.4 °F 93% 30.30 in 15.0 mi South 10.4 mph - N/A   Partly Cloudy
9:00 AM 42.8 °F 35.8 °F 39.2 °F 87% 30.30 in 15.0 mi SW 13.8 mph - N/A   Clear
10:00 AM 48.2 °F - 41.0 °F 76% 30.28 in 15.0 mi SW 11.5 mph - N/A   Partly Cloudy
11:00 AM 53.6 °F - 42.8 °F 67% 30.27 in 15.0 mi SW 15.0 mph - N/A   Partly Cloudy
12:00 PM 57.2 °F - 46.4 °F 67% 30.25 in 15.0 mi South 15.0 mph - N/A   Clear
1:00 PM 60.8 °F - 46.4 °F 59% 30.22 in 15.0 mi South 17.3 mph - N/A   Partly Cloudy
2:00 PM 63 °F - 47 °F 45% 30.19 in 15 mi SW 18.4 mph - -   Scattered Clouds
2:00 PM 62.6 °F - 46.4 °F 55% 30.19 in 15.0 mi SW 18.4 mph - N/A   Partly Cloudy
3:00 PM 64.4 °F - 44.6 °F 49% 30.17 in 15.0 mi SSW 18.4 mph 26.5 mph N/A   Partly Cloudy
4:00 PM 66.2 °F - 46.4 °F 49% 30.14 in 15.0 mi South 16.1 mph 24.2 mph N/A   Partly Cloudy
5:00 PM 66.2 °F - 44.6 °F 46% 30.11 in 15.0 mi SSW 13.8 mph - N/A   Partly Cloudy
6:00 PM 64.4 °F - 44.6 °F 49% 30.10 in 15.0 mi SSW 11.5 mph - N/A   Clear
7:00 PM 62.6 °F - 42.8 °F 48% 30.09 in 15.0 mi SSW 9.2 mph - N/A   Partly Cloudy
8:00 PM 58 °F - 43 °F 46% 30.09 in 15 mi South 9.2 mph - -   Clear
8:00 PM 57.2 °F - 42.8 °F 59% 30.09 in 15.0 mi South 9.2 mph - N/A   Partly Cloudy
9:00 PM 53.6 °F - 44.6 °F 72% 30.09 in 15.0 mi South 8.1 mph - N/A   Clear
10:00 PM 51.8 °F - 44.6 °F 76% 30.08 in 15.0 mi South 9.2 mph - N/A   Clear
11:00 PM 51.8 °F - 44.6 °F 76% 30.07 in 15.0 mi SSW 11.5 mph 17.3 mph N/A   Clear